^^
Station Historical Data
Daily Summary for May 25, 2021 Units:  English    Metric   Both
Daily Weekly Monthly Yearly
  High: Low: Average:
Temperature: 76.8 °F 69.5 °F 72.7 °F
Dew Point: 66.9 °F 63.2 °F 65.2 °F
Humidity: 88% 66% 78%
Wind Speed: 5mph 1mph 2.9mph
Wind Gust: 8mph - -
Wind- - South
Pressure: 30.01 in 29.80 in -
Precipitation: 0.00 in    
 
 
Tabular Data for May 25, 2021
Time Temperature Dew Point Pressure Wind Wind Speed Wind Gust Humidity Rainfall Rate (Hourly) solar
00:00 70.4 °F 66.3 °F 30.01 in NNW 1 mph 1 mph 87% 0.00 in 0 W/m2
00:05 70.7 °F 66.3 °F 30.01 in NNE 2 mph 2 mph 86% 0.00 in 0 W/m2
00:10 70.8 °F 66.1 °F 30.00 in NNE 2 mph 2 mph 85% 0.00 in 0 W/m2
00:15 71 °F 66.3 °F 30.00 in NNE 2 mph 3 mph 85% 0.00 in 0 W/m2
00:20 71 °F 65.9 °F 30.00 in NE 2 mph 2 mph 84% 0.00 in 0 W/m2
00:25 71 °F 65.9 °F 30.00 in NNE 3 mph 3 mph 84% 0.00 in 0 W/m2
00:30 71 °F 66.3 °F 30.00 in North 3 mph 3 mph 85% 0.00 in 0 W/m2
00:35 70.8 °F 66.1 °F 30.00 in North 3 mph 3 mph 85% 0.00 in 0 W/m2
00:40 70.7 °F 66 °F 30.00 in NNE 3 mph 3 mph 85% 0.00 in 0 W/m2
00:45 70.6 °F 65.9 °F 30.00 in NNE 3 mph 3 mph 85% 0.00 in 0 W/m2
00:50 70.6 °F 65.9 °F 30.00 in North 3 mph 3 mph 85% 0.00 in 0 W/m2
00:55 70.6 °F 65.9 °F 30.00 in North 3 mph 3 mph 85% 0.00 in 0 W/m2
01:00 70.5 °F 65.8 °F 29.99 in NNE 3 mph 3 mph 85% 0.00 in 0 W/m2
01:05 70.5 °F 65.8 °F 29.99 in NNE 3 mph 3 mph 85% 0.00 in 0 W/m2
01:10 70.4 °F 65.7 °F 29.99 in NNE 3 mph 3 mph 85% 0.00 in 0 W/m2
01:15 70.4 °F 65.7 °F 29.99 in NNE 2 mph 3 mph 85% 0.00 in 0 W/m2
01:20 70.2 °F 65.5 °F 29.98 in NNE 2 mph 2 mph 85% 0.00 in 0 W/m2
01:25 70.1 °F 65.4 °F 29.98 in NNE 2 mph 3 mph 85% 0.00 in 0 W/m2
01:30 70.1 °F 65.4 °F 29.98 in NNE 2 mph 2 mph 85% 0.00 in 0 W/m2
01:35 70.1 °F 65.4 °F 29.98 in NNE 3 mph 3 mph 85% 0.00 in 0 W/m2
01:40 70.1 °F 65.4 °F 29.98 in NNE 3 mph 3 mph 85% 0.00 in 0 W/m2
01:45 70.1 °F 65.4 °F 29.98 in NNE 2 mph 3 mph 85% 0.00 in 0 W/m2
01:50 70 °F 65.3 °F 29.98 in NNE 2 mph 3 mph 85% 0.00 in 0 W/m2
01:55 70 °F 65.3 °F 29.97 in NNE 2 mph 3 mph 85% 0.00 in 0 W/m2
02:00 70 °F 65.6 °F 29.97 in NNE 2 mph 2 mph 86% 0.00 in 0 W/m2
02:05 69.9 °F 65.5 °F 29.97 in NNE 2 mph 2 mph 86% 0.00 in 0 W/m2
02:10 69.9 °F 65.5 °F 29.97 in NE 2 mph 2 mph 86% 0.00 in 0 W/m2
02:15 69.9 °F 65.5 °F 29.97 in North 2 mph 3 mph 86% 0.00 in 0 W/m2
02:20 69.9 °F 65.5 °F 29.97 in NNE 3 mph 3 mph 86% 0.00 in 0 W/m2
02:25 69.9 °F 65.5 °F 29.97 in North 3 mph 3 mph 86% 0.00 in 0 W/m2
02:30 69.9 °F 65.5 °F 29.96 in NNE 3 mph 3 mph 86% 0.00 in 0 W/m2
02:35 69.9 °F 65.5 °F 29.96 in NNE 3 mph 3 mph 86% 0.00 in 0 W/m2
02:40 69.7 °F 65.3 °F 29.96 in NNE 3 mph 3 mph 86% 0.00 in 0 W/m2
02:45 69.7 °F 65.3 °F 29.96 in NNE 2 mph 3 mph 86% 0.00 in 0 W/m2
02:50 69.7 °F 65.7 °F 29.96 in NNE 2 mph 2 mph 87% 0.00 in 0 W/m2
02:55 69.7 °F 65.7 °F 29.96 in NNE 3 mph 3 mph 87% 0.00 in 0 W/m2
03:00 69.6 °F 65.6 °F 29.96 in NNE 2 mph 2 mph 87% 0.00 in 0 W/m2
03:05 69.7 °F 65.7 °F 29.95 in NNE 2 mph 2 mph 87% 0.00 in 0 W/m2
03:10 69.6 °F 65.6 °F 29.95 in NNE 2 mph 3 mph 87% 0.00 in 0 W/m2
03:15 69.6 °F 65.6 °F 29.95 in NNE 2 mph 3 mph 87% 0.00 in 0 W/m2
03:20 69.6 °F 65.9 °F 29.95 in NNE 2 mph 2 mph 88% 0.00 in 0 W/m2
03:25 69.5 °F 65.8 °F 29.95 in North 2 mph 3 mph 88% 0.00 in 0 W/m2
03:30 69.5 °F 65.8 °F 29.95 in NNE 2 mph 3 mph 88% 0.00 in 0 W/m2
03:35 69.5 °F 65.8 °F 29.95 in North 2 mph 3 mph 88% 0.00 in 0 W/m2
03:40 69.5 °F 65.8 °F 29.95 in North 3 mph 3 mph 88% 0.00 in 0 W/m2
03:45 69.5 °F 65.8 °F 29.95 in NNE 3 mph 3 mph 88% 0.00 in 0 W/m2
03:50 69.5 °F 65.8 °F 29.95 in North 2 mph 2 mph 88% 0.00 in 0 W/m2
03:55 69.5 °F 65.8 °F 29.95 in North 2 mph 3 mph 88% 0.00 in 0 W/m2
04:00 69.5 °F 65.8 °F 29.95 in North 2 mph 3 mph 88% 0.00 in 0 W/m2
04:05 69.5 °F 65.8 °F 29.95 in North 2 mph 3 mph 88% 0.00 in 0 W/m2
04:10 69.5 °F 65.8 °F 29.94 in North 2 mph 2 mph 88% 0.00 in 0 W/m2
04:15 69.6 °F 65.9 °F 29.94 in NNE 2 mph 3 mph 88% 0.00 in 0 W/m2
04:20 69.6 °F 65.9 °F 29.94 in NNE 2 mph 2 mph 88% 0.00 in 0 W/m2
04:25 69.5 °F 65.8 °F 29.94 in NNW 2 mph 2 mph 88% 0.00 in 0 W/m2
04:30 69.6 °F 65.9 °F 29.94 in North 2 mph 2 mph 88% 0.00 in 0 W/m2
04:35 69.6 °F 65.6 °F 29.94 in North 2 mph 3 mph 87% 0.00 in 0 W/m2
04:40 69.6 °F 65.6 °F 29.94 in North 2 mph 2 mph 87% 0.00 in 0 W/m2
04:45 69.7 °F 65.7 °F 29.94 in NNE 3 mph 3 mph 87% 0.00 in 0 W/m2
04:50 69.7 °F 65.7 °F 29.94 in NNE 3 mph 3 mph 87% 0.00 in 0 W/m2
04:55 69.7 °F 65.7 °F 29.94 in NNW 2 mph 3 mph 87% 0.00 in 0 W/m2
05:00 69.7 °F 65.7 °F 29.93 in NE 3 mph 3 mph 87% 0.00 in 0 W/m2
05:05 69.8 °F 65.8 °F 29.93 in NNE 3 mph 3 mph 87% 0.00 in 0 W/m2
05:10 69.9 °F 65.9 °F 29.93 in NNE 3 mph 3 mph 87% 0.00 in 0 W/m2
05:15 70 °F 65.6 °F 29.93 in NE 3 mph 3 mph 86% 0.00 in 0 W/m2
05:20 70 °F 65.6 °F 29.93 in North 3 mph 3 mph 86% 0.00 in 0 W/m2
05:25 70 °F 65.6 °F 29.93 in NNE 3 mph 3 mph 86% 0.00 in 0 W/m2
05:30 69.9 °F 65.5 °F 29.93 in NNE 2 mph 2 mph 86% 0.00 in 0 W/m2
05:35 69.9 °F 65.5 °F 29.93 in NNE 2 mph 2 mph 86% 0.00 in 0 W/m2
05:40 69.7 °F 65.3 °F 29.92 in NNE 2 mph 2 mph 86% 0.00 in 0 W/m2
05:45 69.7 °F 65.3 °F 29.93 in NNE 2 mph 3 mph 86% 0.00 in 0 W/m2
05:50 69.7 °F 65.3 °F 29.92 in North 2 mph 2 mph 86% 0.00 in 0 W/m2
05:55 69.7 °F 65.3 °F 29.92 in North 2 mph 2 mph 86% 0.00 in 5 W/m2
06:00 69.7 °F 65.3 °F 29.92 in North 2 mph 2 mph 86% 0.00 in 7 W/m2
06:05 69.5 °F 65.1 °F 29.93 in NNE 2 mph 3 mph 86% 0.00 in 11 W/m2
06:10 69.5 °F 65.1 °F 29.93 in North 2 mph 2 mph 86% 0.00 in 14 W/m2
06:15 69.5 °F 65.1 °F 29.92 in NE 2 mph 2 mph 86% 0.00 in 19 W/m2
06:20 69.5 °F 65.1 °F 29.92 in WNW 2 mph 3 mph 86% 0.00 in 25 W/m2
06:25 69.6 °F 65.2 °F 29.92 in North 2 mph 3 mph 86% 0.00 in 32 W/m2
06:30 69.6 °F 64.9 °F 29.93 in NNE 2 mph 2 mph 85% 0.00 in 33 W/m2
06:35 69.6 °F 64.9 °F 29.93 in North 2 mph 2 mph 85% 0.00 in 35 W/m2
06:40 69.6 °F 64.9 °F 29.93 in North 2 mph 3 mph 85% 0.00 in 37 W/m2
06:45 69.6 °F 64.9 °F 29.93 in NNE 2 mph 3 mph 85% 0.00 in 44 W/m2
06:50 69.6 °F 64.9 °F 29.93 in North 2 mph 2 mph 85% 0.00 in 56 W/m2
06:55 69.6 °F 64.9 °F 29.93 in NNE 2 mph 2 mph 85% 0.00 in 63 W/m2
07:00 69.6 °F 64.9 °F 29.93 in North 2 mph 3 mph 85% 0.00 in 62 W/m2
07:05 69.6 °F 64.9 °F 29.93 in NNE 2 mph 3 mph 85% 0.00 in 62 W/m2
07:10 69.6 °F 64.9 °F 29.93 in NNW 2 mph 2 mph 85% 0.00 in 49 W/m2
07:15 69.6 °F 64.5 °F 29.93 in NNE 2 mph 2 mph 84% 0.00 in 51 W/m2
07:20 69.7 °F 64.6 °F 29.93 in North 2 mph 2 mph 84% 0.00 in 54 W/m2
07:25 69.8 °F 64.7 °F 29.93 in NNE 2 mph 3 mph 84% 0.00 in 60 W/m2
07:30 69.8 °F 64.4 °F 29.93 in NNE 2 mph 3 mph 83% 0.00 in 72 W/m2
07:35 69.8 °F 64.4 °F 29.93 in East 2 mph 3 mph 83% 0.00 in 95 W/m2
07:40 70.1 °F 64 °F 29.93 in NW 2 mph 2 mph 81% 0.00 in 114 W/m2
07:45 70.3 °F 63.8 °F 29.93 in SSE 2 mph 2 mph 80% 0.00 in 109 W/m2
07:50 70.5 °F 64.4 °F 29.93 in North 2 mph 2 mph 81% 0.00 in 98 W/m2
07:55 70.6 °F 63.8 °F 29.93 in NNW 2 mph 2 mph 79% 0.00 in 104 W/m2
08:00 70.9 °F 63.7 °F 29.93 in NNW 3 mph 3 mph 78% 0.00 in 109 W/m2
08:05 71.2 °F 64 °F 29.93 in SSE 3 mph 8 mph 78% 0.00 in 116 W/m2
08:10 71.1 °F 63.9 °F 29.93 in West 2 mph 2 mph 78% 0.00 in 107 W/m2
08:15 71 °F 63.8 °F 29.93 in North 2 mph 2 mph 78% 0.00 in 111 W/m2
08:20 71 °F 63.8 °F 29.93 in NE 2 mph 2 mph 78% 0.00 in 84 W/m2
08:25 71 °F 63.8 °F 29.92 in SW 2 mph 2 mph 78% 0.00 in 86 W/m2
08:30 71 °F 63.8 °F 29.93 in WSW 2 mph 2 mph 78% 0.00 in 230 W/m2
08:35 71.2 °F 63.6 °F 29.92 in NE 2 mph 2 mph 77% 0.00 in 334 W/m2
08:40 71.4 °F 63.8 °F 29.92 in NNW 2 mph 2 mph 77% 0.00 in 353 W/m2
08:45 71.5 °F 63.9 °F 29.92 in ESE 2 mph 3 mph 77% 0.00 in 424 W/m2
08:50 71.5 °F 63.9 °F 29.92 in NNE 2 mph 2 mph 77% 0.00 in 403 W/m2
08:55 71.6 °F 64 °F 29.92 in NE 2 mph 3 mph 77% 0.00 in 387 W/m2
09:00 71.8 °F 64.2 °F 29.92 in SSW 2 mph 2 mph 77% 0.00 in 415 W/m2
09:05 71.9 °F 63.5 °F 29.92 in SE 2 mph 2 mph 75% 0.00 in 459 W/m2
09:10 72 °F 64 °F 29.91 in SSW 2 mph 2 mph 76% 0.00 in 387 W/m2
09:15 72 °F 63.6 °F 29.91 in SW 2 mph 2 mph 75% 0.00 in 341 W/m2
09:20 72.2 °F 63.8 °F 29.92 in SSW 3 mph 6 mph 75% 0.00 in 345 W/m2
09:25 72.1 °F 63.7 °F 29.92 in SSW 2 mph 6 mph 75% 0.00 in 209 W/m2
09:30 72.1 °F 63.7 °F 29.92 in SW 3 mph 3 mph 75% 0.00 in 418 W/m2
09:35 72.1 °F 63.7 °F 29.92 in East 3 mph 3 mph 75% 0.00 in 497 W/m2
09:40 72.4 °F 63.6 °F 29.92 in SW 3 mph 4 mph 74% 0.00 in 564 W/m2
09:45 72.6 °F 64.2 °F 29.92 in SSW 4 mph 4 mph 75% 0.00 in 585 W/m2
09:50 72.7 °F 63.9 °F 29.92 in South 5 mph 5 mph 74% 0.00 in 332 W/m2
09:55 72.8 °F 64 °F 29.92 in WSW 5 mph 6 mph 74% 0.00 in 468 W/m2
10:00 72.9 °F 64.1 °F 29.92 in SW 5 mph 5 mph 74% 0.00 in 411 W/m2
10:05 73 °F 64.2 °F 29.91 in WSW 5 mph 5 mph 74% 0.00 in 650 W/m2
10:10 73.1 °F 64.3 °F 29.91 in SSW 4 mph 6 mph 74% 0.00 in 531 W/m2
10:15 73 °F 64.6 °F 29.91 in SSW 4 mph 6 mph 75% 0.00 in 306 W/m2
10:20 72.9 °F 64.5 °F 29.91 in SW 4 mph 4 mph 75% 0.00 in 255 W/m2
10:25 72.8 °F 64.4 °F 29.91 in SSW 3 mph 4 mph 75% 0.00 in 392 W/m2
10:30 72.8 °F 64.8 °F 29.91 in South 3 mph 5 mph 76% 0.00 in 431 W/m2
10:35 72.7 °F 64.7 °F 29.91 in SSW 4 mph 5 mph 76% 0.00 in 311 W/m2
10:40 72.8 °F 64.4 °F 29.91 in SW 4 mph 4 mph 75% 0.00 in 292 W/m2
10:45 72.9 °F 64.5 °F 29.91 in SSW 5 mph 5 mph 75% 0.00 in 306 W/m2
10:50 73 °F 64.2 °F 29.91 in South 5 mph 6 mph 74% 0.00 in 401 W/m2
10:55 73.2 °F 64.4 °F 29.91 in WSW 5 mph 6 mph 74% 0.00 in 457 W/m2
11:00 73.3 °F 64.5 °F 29.91 in SSW 5 mph 5 mph 74% 0.00 in 513 W/m2
11:05 73.5 °F 64.7 °F 29.91 in SSW 5 mph 5 mph 74% 0.00 in 492 W/m2
11:10 73.5 °F 65.1 °F 29.90 in WSW 4 mph 4 mph 75% 0.00 in 434 W/m2
11:15 73.5 °F 64.7 °F 29.90 in SW 4 mph 4 mph 74% 0.00 in 487 W/m2
11:20 73.6 °F 65.2 °F 29.91 in SSW 4 mph 4 mph 75% 0.00 in 615 W/m2
11:25 73.8 °F 65 °F 29.91 in SSE 4 mph 4 mph 74% 0.00 in 983 W/m2
11:30 73.7 °F 65.3 °F 29.91 in SW 4 mph 4 mph 75% 0.00 in 221 W/m2
11:35 73.5 °F 65.1 °F 29.91 in WSW 4 mph 4 mph 75% 0.00 in 220 W/m2
11:40 73.3 °F 64.9 °F 29.91 in WSW 4 mph 4 mph 75% 0.00 in 357 W/m2
11:45 73.5 °F 65.1 °F 29.91 in SW 4 mph 4 mph 75% 0.00 in 786 W/m2
11:50 73.7 °F 65.3 °F 29.90 in SW 3 mph 4 mph 75% 0.00 in 374 W/m2
11:55 73.7 °F 65.3 °F 29.90 in WSW 3 mph 4 mph 75% 0.00 in 396 W/m2
12:00 73.8 °F 65.4 °F 29.90 in SSW 3 mph 3 mph 75% 0.00 in 1035 W/m2
12:05 74.2 °F 65.8 °F 29.91 in West 3 mph 3 mph 75% 0.00 in 998 W/m2
12:10 74.6 °F 66.1 °F 29.90 in SSW 3 mph 3 mph 75% 0.00 in 1027 W/m2
12:15 74.6 °F 65.8 °F 29.91 in SSW 3 mph 4 mph 74% 0.00 in 715 W/m2
12:20 74.7 °F 66.2 °F 29.91 in SSW 3 mph 3 mph 75% 0.00 in 740 W/m2
12:25 74.8 °F 66 °F 29.90 in WSW 3 mph 3 mph 74% 0.00 in 666 W/m2
12:30 74.6 °F 66.1 °F 29.90 in SW 3 mph 3 mph 75% 0.00 in 401 W/m2
12:35 74.9 °F 66.1 °F 29.90 in WSW 3 mph 4 mph 74% 0.00 in 861 W/m2
12:40 74.9 °F 66.1 °F 29.90 in WSW 3 mph 3 mph 74% 0.00 in 573 W/m2
12:45 74.5 °F 66.4 °F 29.90 in WSW 3 mph 3 mph 76% 0.00 in 594 W/m2
12:50 74.2 °F 66.1 °F 29.90 in SSW 3 mph 3 mph 76% 0.00 in 886 W/m2
12:55 74.9 °F 66.4 °F 29.90 in SW 3 mph 3 mph 75% 0.00 in 714 W/m2
13:00 75.2 °F 66.3 °F 29.90 in WSW 3 mph 5 mph 74% 0.00 in 798 W/m2
13:05 75.3 °F 66.8 °F 29.90 in SW 3 mph 5 mph 75% 0.00 in 949 W/m2
13:10 75.8 °F 66.9 °F 29.90 in SW 3 mph 4 mph 74% 0.00 in 819 W/m2
13:15 75.8 °F 66.5 °F 29.90 in SSW 3 mph 4 mph 73% 0.00 in 819 W/m2
13:20 75.5 °F 65.8 °F 29.90 in SW 4 mph 4 mph 72% 0.00 in 436 W/m2
13:25 75.5 °F 65.8 °F 29.90 in SW 3 mph 4 mph 72% 0.00 in 770 W/m2
13:30 75.8 °F 65.7 °F 29.89 in SW 3 mph 3 mph 71% 0.00 in 895 W/m2
13:35 76 °F 65.9 °F 29.89 in WSW 4 mph 4 mph 71% 0.00 in 1000 W/m2
13:40 76.3 °F 65.8 °F 29.89 in SW 4 mph 4 mph 70% 0.00 in 520 W/m2
13:45 75.7 °F 66 °F 29.89 in SW 4 mph 5 mph 72% 0.00 in 768 W/m2
13:50 75.7 °F 66 °F 29.89 in SSW 4 mph 6 mph 72% 0.00 in 954 W/m2
13:55 75.8 °F 65.3 °F 29.88 in SW 5 mph 6 mph 70% 0.00 in 795 W/m2
14:00 76.1 °F 65.2 °F 29.88 in SW 5 mph 5 mph 69% 0.00 in 482 W/m2
14:05 76.3 °F 65 °F 29.88 in SW 4 mph 5 mph 68% 0.00 in 492 W/m2
14:10 76.7 °F 64.9 °F 29.88 in West 4 mph 4 mph 67% 0.00 in 427 W/m2
14:15 76.7 °F 65.3 °F 29.88 in SSW 4 mph 4 mph 68% 0.00 in 434 W/m2
14:20 76.5 °F 65.1 °F 29.88 in SW 4 mph 4 mph 68% 0.00 in 367 W/m2
14:25 76.1 °F 65.6 °F 29.88 in SW 4 mph 4 mph 70% 0.00 in 373 W/m2
14:30 75.8 °F 65.7 °F 29.88 in SW 3 mph 3 mph 71% 0.00 in 336 W/m2
14:35 75.6 °F 65.9 °F 29.88 in SSW 3 mph 3 mph 72% 0.00 in 357 W/m2
14:40 75.3 °F 65.6 °F 29.88 in SW 3 mph 3 mph 72% 0.00 in 431 W/m2
14:45 75.4 °F 65.7 °F 29.87 in South 3 mph 4 mph 72% 0.00 in 529 W/m2
14:50 75.4 °F 66.1 °F 29.87 in South 4 mph 4 mph 73% 0.00 in 554 W/m2
14:55 75.5 °F 65.4 °F 29.87 in WSW 4 mph 4 mph 71% 0.00 in 823 W/m2
15:00 75.6 °F 66.3 °F 29.87 in WNW 3 mph 5 mph 73% 0.00 in 559 W/m2
15:05 75.7 °F 66 °F 29.87 in SW 3 mph 5 mph 72% 0.00 in 272 W/m2
15:10 75.4 °F 65.7 °F 29.87 in SW 4 mph 4 mph 72% 0.00 in 360 W/m2
15:15 75.2 °F 65.1 °F 29.87 in SSW 4 mph 4 mph 71% 0.00 in 478 W/m2
15:20 75.2 °F 65.9 °F 29.87 in West 4 mph 7 mph 73% 0.00 in 557 W/m2
15:25 75.3 °F 65.6 °F 29.86 in West 4 mph 7 mph 72% 0.00 in 378 W/m2
15:30 75.3 °F 65.2 °F 29.86 in WSW 4 mph 4 mph 71% 0.00 in 306 W/m2
15:35 75.3 °F 65.2 °F 29.86 in WSW 3 mph 4 mph 71% 0.00 in 227 W/m2
15:40 75.3 °F 65.6 °F 29.86 in SSW 3 mph 3 mph 72% 0.00 in 318 W/m2
15:45 75.3 °F 64.8 °F 29.86 in SW 4 mph 4 mph 70% 0.00 in 374 W/m2
15:50 75.5 °F 65.4 °F 29.86 in SSW 3 mph 4 mph 71% 0.00 in 350 W/m2
15:55 75.6 °F 65.1 °F 29.85 in SW 3 mph 4 mph 70% 0.00 in 427 W/m2
16:00 75.7 °F 65.2 °F 29.86 in WNW 3 mph 3 mph 70% 0.00 in 394 W/m2
16:05 75.8 °F 65.3 °F 29.85 in SSW 3 mph 3 mph 70% 0.00 in 592 W/m2
16:10 76.1 °F 65.6 °F 29.85 in SW 3 mph 3 mph 70% 0.00 in 846 W/m2
16:15 76.2 °F 65.7 °F 29.85 in NW 3 mph 3 mph 70% 0.00 in 846 W/m2
16:20 76.4 °F 65.5 °F 29.85 in West 3 mph 3 mph 69% 0.00 in 606 W/m2
16:25 76.6 °F 64.4 °F 29.85 in SW 3 mph 3 mph 66% 0.00 in 482 W/m2
16:30 76.8 °F 65.9 °F 29.85 in SW 3 mph 3 mph 69% 0.00 in 519 W/m2
16:35 76.7 °F 65.8 °F 29.84 in SW 3 mph 3 mph 69% 0.00 in 461 W/m2
16:40 76.6 °F 64.8 °F 29.84 in WSW 3 mph 3 mph 67% 0.00 in 330 W/m2
16:45 76.4 °F 65.1 °F 29.84 in West 3 mph 3 mph 68% 0.00 in 272 W/m2
16:50 76.1 °F 65.2 °F 29.84 in WSW 3 mph 3 mph 69% 0.00 in 232 W/m2
16:55 75.9 °F 64.6 °F 29.84 in SW 3 mph 3 mph 68% 0.00 in 213 W/m2
17:00 75.7 °F 64.4 °F 29.84 in WSW 3 mph 4 mph 68% 0.00 in 195 W/m2
17:05 75.7 °F 65.6 °F 29.84 in WSW 3 mph 4 mph 71% 0.00 in 223 W/m2
17:10 75.6 °F 65.5 °F 29.84 in SW 3 mph 5 mph 71% 0.00 in 276 W/m2
17:15 75.6 °F 64.7 °F 29.84 in SSW 4 mph 5 mph 69% 0.00 in 295 W/m2
17:20 75.7 °F 64.8 °F 29.84 in WNW 3 mph 3 mph 69% 0.00 in 288 W/m2
17:25 75.8 °F 64.9 °F 29.84 in SW 3 mph 3 mph 69% 0.00 in 283 W/m2
17:30 75.8 °F 64.9 °F 29.84 in WSW 3 mph 3 mph 69% 0.00 in 220 W/m2
17:35 75.8 °F 64.9 °F 29.84 in West 4 mph 7 mph 69% 0.00 in 188 W/m2
17:40 75.8 °F 64.5 °F 29.83 in SW 4 mph 4 mph 68% 0.00 in 185 W/m2
17:45 75.7 °F 64.8 °F 29.84 in WNW 3 mph 4 mph 69% 0.00 in 171 W/m2
17:50 75.7 °F 64.4 °F 29.83 in West 3 mph 6 mph 68% 0.00 in 190 W/m2
17:55 75.6 °F 64.7 °F 29.83 in WSW 3 mph 6 mph 69% 0.00 in 202 W/m2
18:00 75.5 °F 63.8 °F 29.84 in West 4 mph 4 mph 67% 0.00 in 148 W/m2
18:05 75.6 °F 63.4 °F 29.83 in West 4 mph 4 mph 66% 0.00 in 137 W/m2
18:10 75.6 °F 63.4 °F 29.83 in WSW 3 mph 3 mph 66% 0.00 in 151 W/m2
18:15 75.7 °F 64.4 °F 29.83 in West 3 mph 3 mph 68% 0.00 in 158 W/m2
18:20 75.7 °F 64.8 °F 29.83 in WSW 3 mph 3 mph 69% 0.00 in 158 W/m2
18:25 75.5 °F 64.2 °F 29.83 in WSW 3 mph 3 mph 68% 0.00 in 155 W/m2
18:30 75.4 °F 63.2 °F 29.83 in WNW 3 mph 3 mph 66% 0.00 in 156 W/m2
18:35 75.4 °F 63.2 °F 29.83 in WNW 3 mph 3 mph 66% 0.00 in 181 W/m2
18:40 75.4 °F 63.7 °F 29.83 in WSW 3 mph 3 mph 67% 0.00 in 174 W/m2
18:45 75.4 °F 63.2 °F 29.83 in West 3 mph 3 mph 66% 0.00 in 202 W/m2
18:50 75.5 °F 64.2 °F 29.82 in WSW 2 mph 5 mph 68% 0.00 in 271 W/m2
18:55 75.5 °F 64.6 °F 29.82 in WSW 3 mph 5 mph 69% 0.00 in 204 W/m2
19:00 75.4 °F 65.3 °F 29.82 in SSW 3 mph 3 mph 71% 0.00 in 172 W/m2
19:05 75.1 °F 65.9 °F 29.82 in SW 2 mph 5 mph 73% 0.00 in 137 W/m2
19:10 74.8 °F 65.6 °F 29.82 in SW 3 mph 3 mph 73% 0.00 in 236 W/m2
19:15 74.5 °F 65.3 °F 29.82 in SSW 2 mph 5 mph 73% 0.00 in 246 W/m2
19:20 74.3 °F 64.7 °F 29.81 in West 2 mph 2 mph 72% 0.00 in 197 W/m2
19:25 74.1 °F 64.9 °F 29.81 in WSW 2 mph 2 mph 73% 0.00 in 107 W/m2
19:30 73.9 °F 65.1 °F 29.81 in SW 2 mph 2 mph 74% 0.00 in 90 W/m2
19:35 73.8 °F 65.4 °F 29.81 in SW 2 mph 2 mph 75% 0.00 in 107 W/m2
19:40 73.7 °F 64.9 °F 29.81 in West 2 mph 3 mph 74% 0.00 in 186 W/m2
19:45 73.6 °F 64.8 °F 29.81 in WSW 3 mph 3 mph 74% 0.00 in 130 W/m2
19:50 73.6 °F 65.6 °F 29.81 in NW 3 mph 4 mph 76% 0.00 in 83 W/m2
19:55 73.5 °F 65.1 °F 29.81 in SSW 3 mph 4 mph 75% 0.00 in 90 W/m2
20:00 73.4 °F 64.6 °F 29.81 in West 3 mph 3 mph 74% 0.00 in 32 W/m2
20:05 73.5 °F 64.7 °F 29.81 in South 3 mph 6 mph 74% 0.00 in 39 W/m2
20:10 73.6 °F 64.8 °F 29.81 in SW 3 mph 3 mph 74% 0.00 in 21 W/m2
20:15 73.7 °F 64.9 °F 29.81 in West 3 mph 3 mph 74% 0.00 in 21 W/m2
20:20 73.7 °F 65.3 °F 29.81 in SW 3 mph 3 mph 75% 0.00 in 26 W/m2
20:25 73.7 °F 65.3 °F 29.81 in WSW 3 mph 3 mph 75% 0.00 in 30 W/m2
20:30 73.7 °F 64.9 °F 29.81 in SW 3 mph 3 mph 74% 0.00 in 26 W/m2
20:35 73.8 °F 65.4 °F 29.80 in SSW 3 mph 4 mph 75% 0.00 in 25 W/m2
20:40 74.1 °F 64.9 °F 29.80 in SW 3 mph 3 mph 73% 0.00 in 23 W/m2
20:45 74.3 °F 65.1 °F 29.80 in SW 3 mph 3 mph 73% 0.00 in 21 W/m2
20:50 74.3 °F 65.5 °F 29.81 in SSW 3 mph 4 mph 74% 0.00 in 18 W/m2
20:55 74.3 °F 65.1 °F 29.81 in SSW 3 mph 4 mph 73% 0.00 in 12 W/m2
21:00 74.4 °F 65.2 °F 29.81 in SSW 3 mph 4 mph 73% 0.00 in 7 W/m2
21:05 74.3 °F 65.1 °F 29.81 in WSW 3 mph 4 mph 73% 0.00 in 5 W/m2
21:10 74.2 °F 65.4 °F 29.81 in South 4 mph 6 mph 74% 0.00 in 0 W/m2
21:15 74.1 °F 65.3 °F 29.81 in WNW 4 mph 6 mph 74% 0.00 in 0 W/m2
21:20 74 °F 65.2 °F 29.81 in SSW 4 mph 4 mph 74% 0.00 in 0 W/m2
21:25 73.9 °F 65.1 °F 29.81 in SW 3 mph 4 mph 74% 0.00 in 0 W/m2
21:30 73.7 °F 65.3 °F 29.81 in SSW 3 mph 3 mph 75% 0.00 in 0 W/m2
21:35 73.6 °F 65.6 °F 29.81 in SSW 3 mph 3 mph 76% 0.00 in 0 W/m2
21:40 73.3 °F 65.3 °F 29.81 in SW 2 mph 2 mph 76% 0.00 in 0 W/m2
21:45 73.2 °F 65.2 °F 29.81 in SW 2 mph 2 mph 76% 0.00 in 0 W/m2
21:50 73 °F 65.7 °F 29.81 in SW 3 mph 3 mph 78% 0.00 in 0 W/m2
21:55 72.9 °F 65.3 °F 29.81 in SSW 3 mph 3 mph 77% 0.00 in 0 W/m2
22:00 73 °F 65.4 °F 29.81 in SSE 3 mph 7 mph 77% 0.00 in 0 W/m2
22:05 73.2 °F 65.6 °F 29.81 in SSW 3 mph 7 mph 77% 0.00 in 0 W/m2
Sand Point, Michigan, USA
Compliments of Weather Underground - 2 mb